weather.gov     
National Weather Service

Terminal Aerodrome Forecast
NWS Homepage
This page is being discontinued on March 12, 2014.
The same data is available at this site. Please update your bookmarks.
Thank you, and we apologize for the inconvenience.
Please send an email to SR-SRH.Webmaster@noaa.gov with any concerns.


Current Version
Previous Version:    01  02  03  04  05  06  07  08  09  10  11  12  13  14  15  16  17  18  19  20  21  22  23  24  25  26  27  28  29  30  
   31  
[Printable]
787
FTUS44 KMEG 171100
TAFMKL
TAF
KMKL 171131Z 1712/1812 04003KT P6SM BKN035
      TEMPO 1712/1713 5SM BR
     FM171600 03005KT P6SM VCSH BKN040 BKN100
     FM172000 VRB03KT P6SM SCT040 BKN100
     FM180100 VRB03KT P6SM VCTS BKN035CB OVC100
     FM180600 05003KT P6SM BKN025=


U.S. Dept. of Commerce
NOAA National Weather Service
1325 East West Highway
Silver Spring, MD 20910
E-mail: w-nws.webmaster@noaa.gov
Page last modified: May 16, 2007
NATIONAL WEATHER SERVICE: for Safety, for Work, for Fun - FOR LIFE